N0QWM Weather Reports


Display with metric or nautical units.
time (UTC)temp
F
wind
direction
speed
MPH
gust
MPH
rain 1hr
in
rain 24hr
in
rain mn
in
humidity
%
barometer
mb
20260510190040 75 253 0.0 0.0 0.00 0.00 0.00 73 1022.0
20260510185536 75 257 1.0 1.0 0.00 0.00 0.00 74 1022.3
20260510185034 75 251 1.0 1.0 0.00 0.00 0.00 75 1022.4
20260510184531 75 291 0.0 0.0 0.00 0.00 0.00 75 1022.2
20260510184026 74 284 1.0 1.0 0.00 0.00 0.00 76 1022.7
20260510183522 75 290 1.0 2.0 0.00 0.00 0.00 77 1022.6
20260510183017 75 27 1.0 1.0 0.00 0.00 0.00 77 1022.6
20260510182514 74 176 1.0 1.0 0.00 0.00 0.00 80 1022.6
20260510182009 74 47 1.0 1.0 0.00 0.00 0.00 80 1022.7
20260510181508 72 50 0.0 0.0 0.00 0.00 0.00 83 1022.6
20260510181003 73 294 1.0 2.0 0.00 0.00 0.00 83 1022.8
20260510180500 73 304 0.0 1.0 0.00 0.00 0.00 83 1022.8
20260510175957 72 304 0.0 1.0 0.00 0.00 0.00 86 1022.9
20260510175453 71 113 4.0 5.0 0.00 0.00 0.00 85 1022.9
20260510174948 71 312 0.0 1.0 0.00 0.00 0.00 86 1022.8
20260510174447 70 290 0.0 0.0 0.00 0.00 0.00 87 1023.0
20260510173944 70 323 0.0 0.0 0.00 0.00 0.00 87 1023.1
20260510173439 70 138 0.0 0.0 0.00 0.00 0.00 88 1023.2
20260510172936 70 328 0.0 0.0 0.00 0.00 0.00 90 1023.3
20260510172432 69 328 0.0 0.0 0.00 0.00 0.00 89 1023.4
20260510171928 69 329 1.0 1.0 0.00 0.00 0.00 88 1023.3
20260510171425 69 328 0.0 0.0 0.00 0.00 0.00 89 1023.2
20260510170922 69 328 0.0 1.0 0.00 0.00 0.00 88 1023.3
20260510170419 69 329 0.0 0.0 0.00 0.00 0.00 88 1023.3
20260510165914 69 59 0.0 1.0 0.00 0.00 0.00 89 1023.6
20260510165411 69 58 0.0 0.0 0.00 0.00 0.00 88 1023.5
20260510164908 69 59 1.0 1.0 0.00 0.00 0.00 88 1023.5
20260510164405 68 325 0.0 0.0 0.00 0.00 0.00 90 1023.5
20260510163905 68 283 1.0 2.0 0.00 0.00 0.00 89 1023.5
20260510163401 70 270 1.0 2.0 0.00 0.00 0.00 88 1023.4
20260510162855 69 265 0.0 0.0 0.00 0.00 0.00 89 1023.4
20260510162354 69 265 1.0 1.0 0.00 0.00 0.00 90 1023.3
20260510161849 69 233 0.0 1.0 0.00 0.00 0.00 89 1023.3
20260510161345 69 256 0.0 1.0 0.00 0.00 0.00 89 1023.4
20260510160842 69 249 0.0 0.0 0.00 0.00 0.00 90 1023.6
20260510160339 69 241 0.0 0.0 0.00 0.00 0.00 89 1023.4
20260510155838 68 266 0.0 0.0 0.00 0.00 0.00 90 1023.3
20260510155336 68 266 0.0 0.0 0.00 0.00 0.00 90 1023.3
20260510154831 68 266 0.0 0.0 0.00 0.00 0.00 89 1023.4
20260510154327 68 240 0.0 0.0 0.00 0.00 0.00 91 1023.3
20260510153821 68 216 0.0 1.0 0.00 0.00 0.00 92 1023.6
20260510153312 68 213 1.0 1.0 0.00 0.00 0.00 92 1023.3
20260510152809 67 228 0.0 0.0 0.00 0.00 0.00 92 1023.4
20260510152307 67 157 2.0 2.0 0.00 0.00 0.00 92 1023.3
20260510151802 67 160 1.0 1.0 0.00 0.00 0.00 92 1023.4
20260510151301 67 158 1.0 2.0 0.00 0.00 0.00 94 1023.3
20260510150756 66 157 1.0 1.0 0.00 0.00 0.00 93 1023.6
20260510150252 67 196 3.0 3.0 0.00 0.00 0.00 94 1023.3
20260510145748 67 270 0.0 0.0 0.00 0.00 0.00 94 1023.3
20260510145245 67 276 0.0 1.0 0.00 0.00 0.00 93 1023.4
20260510144741 67 276 0.0 0.0 0.00 0.00 0.00 94 1023.4
20260510144238 66 277 0.0 0.0 0.00 0.00 0.00 94 1023.5
20260510143737 66 204 1.0 1.0 0.00 0.00 0.00 94 1023.5
20260510143234 66 284 0.0 0.0 0.00 0.00 0.00 94 1023.4
20260510142731 66 267 0.0 0.0 0.00 0.00 0.00 96 1023.4
20260510142228 66 324 0.0 1.0 0.00 0.00 0.00 95 1023.2
20260510141725 66 319 0.0 0.0 0.00 0.00 0.00 96 1023.4
20260510141223 66 319 0.0 0.0 0.00 0.00 0.00 96 1023.2
20260510140719 65 240 0.0 0.0 0.00 0.00 0.00 97 1023.1
20260510140214 65 198 2.0 2.0 0.00 0.00 0.00 96 1023.3
20260510135709 66 259 0.0 0.0 0.00 0.00 0.00 97 1023.2
20260510135205 65 257 0.0 0.0 0.00 0.00 0.00 97 1023.0
20260510134702 65 258 0.0 0.0 0.00 0.00 0.00 98 1023.0
20260510134159 65 242 0.0 0.0 0.00 0.00 0.00 98 1023.2
20260510133655 65 257 0.0 0.0 0.00 0.00 0.00 98 1023.1
20260510133151 65 263 0.0 0.0 0.00 0.00 0.00 98 1023.1
20260510132647 65 259 0.0 0.0 0.00 0.00 0.00 98 1023.0
20260510132144 64 254 0.0 0.0 0.00 0.00 0.00 99 1022.8
20260510131642 64 241 0.0 0.0 0.00 0.00 0.00 99 1023.1
20260510131139 64 125 0.0 1.0 0.00 0.00 0.00 99 1022.8
20260510130636 64 71 0.0 0.0 0.00 0.00 0.00 99 1023.0
20260510130133 64 74 0.0 0.0 0.00 0.00 0.00 99 1022.9
20260510125629 64 75 0.0 0.0 0.00 0.00 0.00 99 1022.8
20260510125126 64 77 0.0 0.0 0.00 0.00 0.00 99 1023.0
20260510124623 63 78 0.0 0.0 0.00 0.00 0.00 99 1022.8
20260510124119 63 79 0.0 0.0 0.00 0.00 0.00 99 1022.8
20260510123615 63 78 0.0 0.0 0.00 0.00 0.00 99 1022.8
20260510123111 63 79 0.0 0.0 0.00 0.00 0.00 99 1022.4
20260510122607 63 79 0.0 0.0 0.00 0.00 0.00 99 1022.5
20260510122103 63 73 0.0 0.0 0.00 0.00 0.00 99 1022.3
20260510121600 63 73 0.0 0.0 0.00 0.00 0.00 99 1022.3
20260510121057 63 73 0.0 0.0 0.00 0.00 0.00 99 1022.2
20260510120555 63 74 0.0 0.0 0.00 0.00 0.00 99 1022.2
20260510120050 63 98 0.0 1.0 0.00 0.00 0.00 99 1022.3
20260510115547 63 99 0.0 0.0 0.00 0.00 0.00 99 1022.2
20260510115044 63 251 0.0 0.0 0.00 0.00 0.00 99 1021.9
20260510114540 63 251 0.0 0.0 0.00 0.00 0.00 99 1022.1
20260510114036 63 251 0.0 0.0 0.00 0.00 0.00 99 1021.8
20260510113531 63 250 1.0 1.0 0.00 0.00 0.00 99 1021.5
20260510113030 63 258 0.0 0.0 0.00 0.00 0.00 99 1021.5
20260510112526 63 261 0.0 0.0 0.00 0.00 0.00 99 1021.5
20260510112022 63 261 0.0 0.0 0.00 0.00 0.00 99 1021.3
20260510111519 63 261 0.0 0.0 0.00 0.00 0.00 99 1021.3
20260510111015 63 261 0.0 0.0 0.00 0.00 0.00 99 1021.1
20260510110511 63 261 0.0 0.0 0.00 0.00 0.00 99 1021.1
20260510110008 63 261 0.0 0.0 0.00 0.00 0.00 99 1020.8
20260510105502 63 261 0.0 0.0 0.00 0.00 0.00 99 1020.8
20260510104958 63 261 0.0 0.0 0.00 0.00 0.00 99 1020.7
20260510104455 63 261 0.0 0.0 0.00 0.00 0.00 99 1020.6
20260510103951 63 260 0.0 0.0 0.00 0.00 0.00 99 1020.3
20260510103449 63 255 0.0 0.0 0.00 0.00 0.00 99 1020.6
20260510102944 63 256 0.0 0.0 0.00 0.00 0.00 99 1020.5
20260510102440 63 256 0.0 0.0 0.00 0.00 0.00 99 1020.3
20260510101937 63 255 0.0 0.0 0.00 0.00 0.00 99 1020.2
20260510101435 63 262 0.0 0.0 0.00 0.00 0.00 99 1020.2
20260510100933 63 262 0.0 0.0 0.00 0.00 0.00 99 1020.1
20260510100429 63 263 0.0 0.0 0.00 0.00 0.00 99 1020.2
20260510095925 63 265 0.0 0.0 0.00 0.00 0.00 99 1020.1
20260510095421 63 265 0.0 0.0 0.00 0.00 0.00 99 1019.9
20260510094920 63 265 0.0 0.0 0.00 0.00 0.00 99 1020.0
20260510094415 63 265 0.0 0.0 0.00 0.00 0.00 99 1020.0
20260510093911 63 265 0.0 0.0 0.00 0.00 0.00 99 1020.0
20260510093407 63 265 0.0 0.0 0.00 0.00 0.00 99 1019.8
20260510092903 63 265 0.0 0.0 0.00 0.00 0.00 99 1019.8
20260510092401 63 265 0.0 0.0 0.00 0.00 0.00 99 1019.6
20260510091855 63 265 0.0 0.0 0.00 0.00 0.00 99 1019.4
20260510091353 63 265 0.0 0.0 0.00 0.00 0.00 99 1019.7
20260510090849 63 265 0.0 0.0 0.00 0.00 0.00 99 1019.5
20260510090346 63 265 0.0 0.0 0.00 0.00 0.00 99 1019.1
20260510085841 63 264 0.0 0.0 0.00 0.00 0.00 99 1019.4
20260510085336 63 267 0.0 0.0 0.00 0.00 0.00 99 1019.3
20260510084832 63 267 0.0 0.0 0.00 0.00 0.00 99 1019.1
20260510084329 63 267 0.0 0.0 0.00 0.00 0.00 99 1019.2
20260510083826 63 268 0.0 0.0 0.00 0.00 0.00 99 1019.1
20260510083323 63 267 0.0 0.0 0.00 0.00 0.00 99 1019.4
20260510082818 63 267 0.0 0.0 0.00 0.00 0.00 99 1019.0
20260510082316 63 267 0.0 0.0 0.00 0.00 0.00 99 1018.9
20260510081814 63 266 0.0 0.0 0.00 0.00 0.00 99 1019.3
20260510081311 63 274 0.0 0.0 0.00 0.00 0.00 99 1019.3
20260510080807 63 274 0.0 0.0 0.00 0.00 0.00 99 1018.9
20260510080301 63 273 0.0 0.0 0.00 0.00 0.00 99 1018.8
20260510075759 63 273 0.0 0.0 0.00 0.00 0.00 99 1018.8
20260510075256 63 274 0.0 0.0 0.00 0.00 0.00 99 1019.0
20260510074753 63 274 0.0 0.0 0.00 0.00 0.00 99 1019.0
20260510074250 63 273 0.0 0.0 0.00 0.00 0.00 99 1019.0
20260510073746 63 274 0.0 0.0 0.00 0.00 0.00 99 1019.0
20260510073242 63 274 0.0 0.0 0.00 0.00 0.00 99 1018.8
20260510072737 63 274 0.0 0.0 0.00 0.00 0.00 99 1018.9
20260510072234 63 274 0.0 0.0 0.00 0.00 0.00 99 1019.0
20260510071731 63 274 0.0 0.0 0.00 0.00 0.00 99 1018.9
20260510071228 63 274 0.0 0.0 0.00 0.00 0.00 99 1018.9
20260510070726 63 274 0.0 0.0 0.00 0.00 0.00 99 1019.2
20260510070223 63 274 0.0 0.0 0.00 0.00 0.00 99 1019.0
20260510065718 63 274 0.0 0.0 0.00 0.00 0.00 99 1019.0
20260510065214 63 274 0.0 0.0 0.00 0.00 0.00 99 1019.3
20260510064711 63 274 0.0 0.0 0.00 0.00 0.00 99 1019.1
20260510064209 63 274 0.0 0.0 0.00 0.00 0.00 99 1019.3
20260510063705 63 274 0.0 0.0 0.00 0.00 0.00 99 1019.1
20260510063201 63 274 0.0 0.0 0.00 0.00 0.00 99 1019.4
20260510062658 63 274 0.0 0.0 0.00 0.00 0.00 99 1019.5
20260510062154 62 274 0.0 0.0 0.00 0.00 0.00 99 1019.4
20260510061649 62 274 0.0 0.0 0.00 0.00 0.00 99 1019.6
20260510061147 62 274 0.0 0.0 0.00 0.00 0.00 99 1019.5
20260510060643 62 274 0.0 0.0 0.00 0.00 0.00 99 1019.6
20260510060140 62 274 0.0 0.0 0.00 0.00 0.00 99 1019.3
20260510055636 62 274 0.0 0.0 0.00 0.00 0.00 99 1019.3
20260510055134 62 274 0.0 0.0 0.00 0.00 0.00 99 1019.4
20260510054629 62 274 0.0 0.0 0.00 0.00 0.00 99 1019.3
20260510054125 62 273 0.0 0.0 0.00 0.00 0.00 99 1019.6
20260510053624 62 273 0.0 0.0 0.00 0.00 0.00 99 1019.5
20260510053121 62 273 0.0 0.0 0.00 0.00 0.00 99 1019.6
20260510052617 62 273 0.0 0.0 0.00 0.00 0.00 99 1019.8
20260510052114 62 273 0.0 0.0 0.00 0.00 0.00 99 1019.5
20260510051609 62 273 0.0 0.0 0.00 0.00 0.00 99 1019.5
20260510051107 62 273 0.0 0.0 0.00 0.00 0.00 99 1019.4
20260510050604 62 273 0.0 0.0 0.00 0.00 0.00 99 1019.7
20260510050100 62 273 0.0 0.0 0.00 0.00 0.00 99 1019.4
20260510045558 63 273 0.0 0.0 0.00 0.06 0.06 99 1019.9
20260510045053 63 273 0.0 0.0 0.00 0.06 0.06 99 1019.6
20260510044550 63 273 0.0 0.0 0.00 0.06 0.06 99 1019.6
20260510044048 63 273 0.0 0.0 0.00 0.06 0.06 99 1019.8
20260510043543 63 273 0.0 0.0 0.00 0.06 0.06 99 1019.8
20260510043039 63 273 0.0 0.0 0.00 0.06 0.06 99 1019.6
20260510042533 63 273 0.0 0.0 0.00 0.06 0.06 99 1019.7
20260510042028 63 273 0.0 0.0 0.00 0.06 0.06 99 1019.7
20260510041526 63 273 0.0 0.0 0.00 0.06 0.06 99 1019.8
20260510041023 63 273 0.0 0.0 0.00 0.06 0.06 99 1019.9
20260510040519 64 273 0.0 0.0 0.00 0.06 0.06 99 1019.8
20260510040015 64 273 0.0 0.0 0.00 0.06 0.06 99 1019.7
20260510035512 64 273 0.0 0.0 0.00 0.06 0.06 99 1019.6
20260510035011 64 273 0.0 0.0 0.00 0.06 0.06 99 1019.8
20260510034510 64 274 0.0 0.0 0.00 0.06 0.06 99 1019.8
20260510034006 64 274 0.0 0.0 0.00 0.06 0.06 99 1019.7
20260510033502 64 274 0.0 0.0 0.00 0.06 0.06 99 1019.7
20260510033001 65 274 0.0 0.0 0.00 0.06 0.06 99 1019.8
20260510032457 65 273 0.0 0.0 0.00 0.06 0.06 99 1020.0
20260510031957 65 274 0.0 0.0 0.00 0.06 0.06 99 1020.0
20260510031452 65 273 0.0 0.0 0.00 0.06 0.06 99 1019.8
20260510030949 65 274 0.0 0.0 0.00 0.06 0.06 99 1020.0
20260510030444 66 274 0.0 0.0 0.00 0.06 0.06 99 1019.8
20260510025942 66 274 0.0 0.0 0.00 0.06 0.06 99 1019.6
20260510025439 66 274 0.0 0.0 0.00 0.06 0.06 99 1019.7
20260510024936 66 273 0.0 0.0 0.00 0.06 0.06 99 1019.8
20260510024433 66 273 0.0 0.0 0.00 0.06 0.06 98 1019.7
20260510023928 66 273 0.0 0.0 0.00 0.06 0.06 98 1019.7
20260510023425 66 273 0.0 0.0 0.00 0.06 0.06 98 1019.6
20260510022922 67 316 0.0 0.0 0.00 0.06 0.06 98 1019.5
20260510022421 67 316 0.0 0.0 0.00 0.06 0.06 97 1019.5
20260510021920 67 317 0.0 1.0 0.00 0.06 0.06 97 1019.3
20260510021419 67 317 0.0 0.0 0.00 0.06 0.06 97 1019.2
20260510020915 67 318 0.0 0.0 0.00 0.06 0.06 97 1018.9
20260510020410 67 318 0.0 0.0 0.00 0.06 0.06 97 1019.1
20260510015906 67 319 0.0 0.0 0.00 0.06 0.06 96 1019.1
20260510015402 67 284 0.0 1.0 0.00 0.06 0.06 96 1019.1
20260510014857 67 283 0.0 0.0 0.00 0.06 0.06 96 1019.0
20260510014355 67 284 0.0 0.0 0.00 0.06 0.06 96 1018.8
20260510013851 67 283 1.0 1.0 0.00 0.06 0.06 96 1018.8
20260510013346 67 284 0.0 1.0 0.00 0.06 0.06 95 1018.4
20260510012841 67 283 0.0 0.0 0.00 0.06 0.06 95 1018.4
20260510012341 68 283 0.0 0.0 0.00 0.06 0.06 95 1018.7
20260510011837 68 284 0.0 0.0 0.00 0.06 0.06 94 1018.3
20260510011332 68 284 0.0 0.0 0.00 0.06 0.06 94 1018.2
20260510010829 68 284 0.0 0.0 0.00 0.06 0.06 94 1018.4
20260510010326 68 284 0.0 0.0 0.00 0.06 0.06 94 1018.1
20260510005822 68 284 0.0 0.0 0.00 0.06 0.06 94 1018.0
20260510005319 68 283 0.0 0.0 0.00 0.06 0.06 94 1017.9
20260510004817 68 284 0.0 0.0 0.00 0.06 0.06 93 1017.8
20260510004314 68 283 1.0 1.0 0.00 0.06 0.06 93 1017.9
20260510003812 68 284 0.0 0.0 0.00 0.06 0.06 93 1017.8
20260510003308 68 284 0.0 0.0 0.00 0.06 0.06 92 1017.9
20260510002807 68 284 0.0 0.0 0.00 0.06 0.06 92 1018.0
20260510002307 68 284 0.0 0.0 0.00 0.06 0.06 92 1018.2
20260510001801 69 284 0.0 0.0 0.00 0.06 0.06 92 1017.9
20260510001259 69 284 0.0 0.0 0.00 0.06 0.06 92 1017.9
20260510000754 69 284 0.0 0.0 0.00 0.06 0.06 92 1018.0
20260510000253 69 284 0.0 0.0 0.00 0.06 0.06 92 1017.6
20260509235749 69 284 0.0 0.0 0.00 0.06 0.06 91 1017.4
20260509235246 69 283 0.0 0.0 0.00 0.06 0.06 90 1017.4
20260509234741 70 284 0.0 0.0 0.00 0.06 0.06 91 1017.3
20260509234239 70 283 0.0 0.0 0.00 0.06 0.06 90 1017.2
20260509233737 70 284 0.0 0.0 0.00 0.06 0.06 90 1017.3
20260509233234 70 284 0.0 0.0 0.00 0.06 0.06 90 1017.1
20260509232730 70 284 0.0 0.0 0.00 0.06 0.06 89 1017.1
20260509232227 70 284 0.0 0.0 0.00 0.06 0.06 89 1016.9
20260509231724 71 284 0.0 0.0 0.00 0.06 0.06 89 1017.1
20260509231221 71 283 0.0 0.0 0.00 0.06 0.06 89 1017.3
20260509230719 71 284 0.0 0.0 0.00 0.06 0.06 88 1017.1
20260509230215 71 284 0.0 0.0 0.00 0.06 0.06 87 1017.0
20260509225710 71 284 0.0 0.0 0.00 0.06 0.06 87 1017.0
20260509225206 71 283 0.0 0.0 0.00 0.06 0.06 87 1016.8
20260509224657 72 284 0.0 0.0 0.00 0.06 0.06 85 1016.7
20260509224154 72 284 0.0 0.0 0.00 0.06 0.06 84 1016.7
20260509223650 73 284 0.0 0.0 0.00 0.06 0.06 83 1016.9
20260509223148 73 284 0.0 0.0 0.00 0.06 0.06 81 1016.7
20260509222645 73 284 0.0 1.0 0.00 0.06 0.06 80 1016.7
20260509222140 73 284 0.0 1.0 0.00 0.06 0.06 80 1016.6
20260509221636 73 284 0.0 0.0 0.00 0.06 0.06 81 1016.6
20260509221132 73 284 0.0 0.0 0.00 0.06 0.06 79 1016.5
20260509220628 73 299 0.0 0.0 0.00 0.06 0.06 82 1016.6
20260509220124 73 301 0.0 0.0 0.00 0.06 0.06 81 1016.7
20260509215620 73 301 0.0 0.0 0.00 0.06 0.06 80 1016.7
20260509215117 73 301 0.0 0.0 0.00 0.06 0.06 78 1016.6
20260509214614 73 302 0.0 0.0 0.00 0.06 0.06 80 1016.5
20260509214111 73 302 1.0 1.0 0.00 0.06 0.06 78 1016.5
20260509213607 73 301 0.0 0.0 0.00 0.06 0.06 77 1016.3
20260509213104 73 302 0.0 0.0 0.00 0.06 0.06 78 1016.6
20260509212601 73 301 0.0 0.0 0.00 0.06 0.06 78 1016.5
20260509212058 74 302 0.0 1.0 0.00 0.06 0.06 76 1016.5
20260509211554 74 269 0.0 0.0 0.00 0.06 0.06 74 1016.3
20260509211050 74 265 0.0 0.0 0.00 0.06 0.06 78 1016.4
20260509210547 73 253 0.0 1.0 0.00 0.06 0.06 76 1016.3
20260509210044 73 153 1.0 1.0 0.00 0.06 0.06 76 1016.4
20260509205538 74 147 1.0 2.0 0.00 0.06 0.06 76 1016.4
20260509205033 74 143 0.0 0.0 0.00 0.06 0.06 75 1016.2
20260509204530 73 142 1.0 1.0 0.00 0.06 0.06 76 1016.4
20260509204026 74 291 2.0 2.0 0.00 0.06 0.06 76 1016.4
20260509203522 74 192 1.0 2.0 0.00 0.06 0.06 76 1016.4
20260509203021 74 300 0.0 1.0 0.00 0.06 0.06 76 1016.4
20260509202521 74 260 0.0 0.0 0.00 0.06 0.06 75 1016.8
20260509202017 74 301 1.0 1.0 0.00 0.06 0.06 74 1016.4
20260509201512 74 241 1.0 1.0 0.00 0.06 0.06 74 1016.4
20260509201009 74 237 1.0 1.0 0.00 0.06 0.06 74 1016.7
20260509200504 75 268 0.0 0.0 0.00 0.06 0.06 78 1016.7
20260509200001 74 238 0.0 0.0 0.00 0.06 0.06 75 1016.5
20260509195456 74 254 1.0 1.0 0.00 0.06 0.06 77 1016.4
20260509194955 74 249 0.0 0.0 0.00 0.06 0.06 77 1016.4
20260509194451 73 244 1.0 2.0 0.00 0.06 0.06 76 1016.4
20260509193949 73 246 1.0 1.0 0.00 0.06 0.06 76 1016.5
20260509193448 73 247 1.0 1.0 0.00 0.06 0.06 77 1016.9
20260509192944 74 285 1.0 1.0 0.00 0.06 0.06 75 1016.9
20260509192441 74 125 1.0 1.0 0.00 0.06 0.06 76 1016.8
20260509191937 74 263 2.0 2.0 0.00 0.06 0.06 78 1016.8
20260509191432 74 202 0.0 0.0 0.00 0.06 0.06 75 1016.9
20260509190928 73 205 1.0 2.0 0.00 0.06 0.06 77 1017.1
20260509190426 74 271 1.0 2.0 0.00 0.06 0.06 78 1017.1